SCP
1 1 1 1 1 0 0 0 0 0 0 0 0 0 0 0 0 0 0 0 0 0 0 0 0 0 0 0 0 0 0 0 0 0 0 0 0 0 0 0 0 0 0
1 1 1 1 1 1 0 0 0 0 0 0 0 0 0 0 0 0 0 0 0 0 0 0 0 0 0 0 0 0 0 0 0 0 0 0 0 0 0 0 0 0 0
1 1 1 1 1 1 1 1 1 0 0 0 0 0 0 0 0 0 0 0 0 0 0 0 0 0 0 0 0 0 0 0 0 0 0 0 0 0 0 0 0 0 0
2 2 1 1 1 1 1 1 1 1 1 1 0 0 0 0 0 0 0 0 0 0 0 0 0 0 0 0 0 0 0 0 0 0 0 0 0 0 0 0 0 0 0
2 2 2 2 1 1 1 1 1 1 1 1 1 1 0 0 0 1 1 1 1 0 0 0 0 0 0 0 0 0 0 0 0 0 0 0 0 0 0 0 0 0 0
2 2 2 2 2 1 1 1 1 1 1 1 1 1 1 0 0 0 0 1 0 0 0 0 0 0 0 0 0 0 0 0 0 0 0 0 0 0 0 0 0 0 0
2 2 2 2 2 2 1 1 1 1 1 1 1 1 1 1 0 0 0 0 0 0 0 0 0 0 0 0 0 0 0 0 0 0 0 0 0 0 0 0 0 0 0
2 2 2 2 2 1 1 1 1 1 1 1 1 1 1 1 0 0 0 0 0 0 0 0 0 0 0 0 0 0 0 0 0 0 0 0 0 0 0 0 0 0 0
3 2 2 2 2 2 1 1 1 1 1 1 1 1 1 0 0 0 0 0 0 0 0 0 0 0 0 0 0 0 0 0 0 0 0 0 0 0 0 0 0 0 0
3 2 2 2 2 2 2 1 1 1 1 1 1 1 0 0 0 0 0 0 0 0 0 0 0 0 0 0 0 0 0 0 0 0 0 0 0 0 0 0 0 0 0
2 2 2 2 2 2 2 1 1 1 1 1 1 0 0 0 0 0 0 0 0 0 0 0 0 0 0 0 0 0 0 0 0 0 0 0 0 0 0 0 0 0 0
2 2 2 2 2 2 2 1 1 1 1 1 1 0 0 0 0 0 0 0 0 0 0 0 0 0 0 0 0 0 0 0 0 0 0 0 0 0 0 0 0 0 0
2 2 2 2 2 2 2 2 1 1 1 1 0 0 0 0 0 0 0 0 0 0 0 0 0 0 0 0 0 0 0 0 0 0 0 0 0 0 0 0 0 0 0
2 2 2 2 2 2 2 1 1 1 1 1 1 0 0 0 0 0 0 0 0 0 0 0 0 0 0 0 0 0 0 0 0 0 0 0 0 0 0 0 0 0 0
2 2 2 2 2 1 1 1 1 1 1 0 0 0 0 0 0 0 0 0 0 0 0 0 0 0 0 0 0 0 0 0 0 0 0 0 0 0 0 0 0 0 0
2 2 1 1 1 1 1 1 0 0 0 0 0 0 0 0 0 0 0 0 0 0 0 0 0 0 0 0 0 0 0 0 0 0 0 0 0 0 0 0 0 0 0
2 1 1 1 1 1 1 1 0 0 0 0 0 0 0 0 0 0 0 0 0 0 0 0 0 0 0 0 0 0 0 0 0 0 0 0 0 0 0 0 0 0 0
1 1 1 1 1 1 1 1 1 0 0 0 0 0 0 0 0 0 0 0 0 0 0 0 0 0 0 0 0 0 0 0 0 0 0 0 0 0 0 0 0 0 0
1 1 1 1 1 1 1 1 1 1 1 0 0 0 0 0 0 0 0 0 0 0 0 0 0 0 0 0 0 0 0 0 0 0 0 0 0 0 0 0 0 0 0
1 1 1 1 1 1 1 1 1 1 1 1 0 0 0 0 0 0 0 0 0 0 0 0 0 0 0 0 0 0 0 0 0 0 0 0 0 0 0 0 0 0 0
1 1 0 1 1 1 1 1 1 1 0 0 0 0 0 0 0 0 0 0 0 0 0 0 0 0 0 0 0 0 0 0 0 0 0 0 0 0 0 0 0 0 0
0 0 0 0 0 0 0 0 0 0 0 0 0 0 0 0 0 0 0 0 0 0 0 0 0 0 0 0 0 0 0 0 0 0 0 0 0 0 0 0 0 0 0
0 0 0 0 0 0 0 0 0 0 0 0 0 0 0 0 0 0 0 0 0 0 0 0 0 0 0 0 0 0 0 0 0 0 0 0 0 0 0 0 0 0 0
0 0 0 0 0 0 0 0 0 0 0 0 0 0 0 0 0 0 0 0 0 0 0 0 0 0 0 0 0 0 0 0 0 0 0 0 0 0 0 0 0 0 0
0 0 0 0 0 0 0 0 0 0 0 0 0 0 0 0 0 0 0 0 0 0 0 0 0 0 0 0 0 0 0 0 0 0 0 0 0 0 0 0 0 0 0
0 0 0 0 0 0 0 0 0 0 0 0 0 0 0 0 0 0 0 0 0 0 0 0 0 0 0 0 0 0 0 0 0 0 0 0 0 0 0 0 0 0 0
Wind_Speed
9 8 8 8 7 7 6 5 5 4 4 4 4 4 3 3 2 2 2 2 3 3 3 3 4 4 4 4 4 4 4 4 4 3 1 1 1 1 1 1 1 1 3
8 8 8 8 8 7 6 6 5 5 4 4 4 4 3 3 2 2 2 3 3 3 3 3 3 2 3 3 3 4 4 4 4 3 2 2 2 2 2 2 1 1 2
8 8 8 8 8 7 6 6 5 5 4 4 4 4 3 3 2 2 3 3 3 3 3 3 3 3 3 3 3 3 3 3 3 3 3 2 2 2 2 2 1 1 1
7 8 8 7 7 7 6 6 6 5 5 4 4 3 3 3 3 2 3 2 2 2 2 2 2 3 3 4 3 3 3 3 3 3 3 2 2 2 3 2 2 2 1
7 7 8 7 7 6 6 6 5 5 5 4 4 4 3 3 2 2 2 2 2 2 2 2 1 1 2 3 3 2 3 3 3 3 3 3 2 2 3 3 2 2 1
7 7 7 7 7 6 6 6 6 5 5 5 4 4 3 2 2 0 3 2 2 2 1 1 1 1 0 1 1 2 2 3 3 3 3 3 3 3 3 3 2 2 1
7 6 7 7 7 7 6 6 6 5 5 4 4 4 3 2 3 1 2 2 1 1 1 1 2 0 1 1 2 3 2 1 2 3 2 2 2 2 3 4 3 2 1
6 6 7 7 7 7 6 6 6 5 5 4 4 4 4 3 4 2 2 3 1 1 1 1 1 1 1 2 1 1 1 1 1 2 1 2 1 1 3 3 2 2 1
5 6 6 6 7 7 6 6 5 5 5 5 4 4 4 4 4 3 3 2 2 1 1 1 1 1 2 2 1 1 1 1 2 2 2 2 2 1 2 2 2 2 1
6 5 5 5 6 7 7 6 5 5 5 5 4 4 4 3 4 3 4 3 2 2 2 2 2 1 1 1 1 1 1 1 1 3 3 2 2 3 4 3 2 2 2
6 6 6 6 7 7 7 6 6 5 5 4 4 3 3 2 4 3 2 3 2 2 2 2 2 3 2 0 2 1 1 1 2 2 2 2 2 2 2 2 2 2 3
6 6 6 6 6 6 7 6 6 6 6 5 4 4 3 3 2 3 2 1 3 2 1 1 3 4 3 2 1 1 1 3 2 2 2 2 1 1 1 1 1 2 3
6 6 6 6 5 6 7 7 7 6 5 5 5 4 3 3 4 5 4 3 2 2 0 3 2 3 4 4 4 3 3 2 2 2 1 1 1 1 1 2 2 2 2
6 5 5 5 6 5 5 5 5 5 5 4 4 4 3 3 3 3 4 5 5 4 3 4 5 4 3 1 3 4 3 1 1 2 1 1 1 2 2 2 2 2 2
5 5 4 5 6 5 4 2 3 2 1 3 3 3 3 3 2 1 1 1 1 1 2 3 3 3 3 3 3 2 2 2 2 2 2 2 2 2 2 2 2 3 3
5 5 4 4 5 5 5 4 5 3 4 3 3 1 2 3 4 3 1 1 1 1 3 3 3 3 3 2 3 3 2 2 2 3 3 3 3 3 3 3 3 4 4
5 5 4 4 5 5 5 6 5 4 4 3 3 2 2 4 4 4 3 2 3 4 4 3 3 3 2 2 2 2 2 2 3 3 4 4 4 4 4 4 4 4 4
4 4 4 4 4 5 5 4 4 5 5 4 4 5 4 4 4 4 4 4 4 4 4 3 2 2 2 2 3 3 3 2 3 3 4 4 4 4 5 5 5 5 5
3 3 3 4 4 4 4 4 3 3 3 3 3 5 4 5 5 4 5 3 3 3 3 2 2 2 2 2 2 3 3 3 3 4 4 4 4 5 5 5 5 5 7
3 4 3 4 4 4 4 4 3 3 3 3 3 3 4 4 3 4 3 3 2 2 2 2 2 2 2 2 3 3 3 3 4 4 4 4 4 5 6 6 6 6 6
2 3 4 4 4 3 3 3 3 2 2 2 2 2 2 3 3 3 3 3 2 2 2 2 2 2 2 2 3 3 4 3 3 3 3 4 4 5 5 5 6 6 6
2 2 3 3 3 3 2 2 3 2 2 2 2 4 4 3 2 2 2 1 1 1 1 1 1 1 2 2 2 3 4 4 3 3 4 4 4 5 6 6 5 5 5
2 2 3 3 3 3 3 2 2 2 2 2 2 3 3 2 2 2 1 1 1 1 1 1 1 1 1 1 2 2 3 3 4 4 4 4 4 5 5 5 6 6 6
2 3 3 3 3 3 2 2 2 2 2 2 1 1 1 2 1 1 1 1 1 1 1 0 0 0 1 1 1 1 2 4 4 4 5 5 5 4 4 5 5 6 6
2 3 3 2 2 2 2 1 1 1 1 1 1 1 1 1 1 1 2 1 2 1 1 1 1 1 0 1 1 2 3 3 3 5 4 4 4 4 4 5 5 5 5
3 3 3 2 2 1 1 1 1 1 1 1 1 1 1 1 1 1 1 1 1 1 1 1 1 1 1 0 2 2 1 1 2 4 6 4 4 3 4 5 6 5 5
Wind_Direction
191 192 193 193 195 197 200 203 205 205 200 203 203 202 201 203 208 215 234 233 238 244 253 257 261 271 268 261 253 248 249 249 252 249 238 156 180 211 148 160 164 163 120
185 187 189 190 192 195 192 193 192 191 192 190 193 196 200 196 198 214 231 237 241 251 258 264 269 265 261 264 262 254 251 246 242 241 230 209 207 197 172 194 168 145 119
180 182 181 185 187 191 187 182 181 181 183 185 185 188 193 193 198 215 232 242 251 259 263 263 266 266 267 267 263 258 252 247 239 228 221 203 191 173 176 179 149 170 159
180 180 179 184 186 183 179 178 176 175 177 178 178 177 188 194 199 214 223 235 241 248 258 259 262 268 276 272 258 254 254 251 231 224 215 199 184 171 192 189 181 180 187
181 181 178 177 178 176 172 172 171 173 173 169 171 176 186 195 206 224 225 226 236 239 243 253 266 315 330 301 287 269 250 245 228 219 215 205 189 186 205 203 201 187 188
182 180 171 171 170 174 176 174 169 169 171 174 177 180 186 181 98 40 272 224 239 258 263 254 213 207 226 220 289 293 280 251 246 232 223 219 213 207 205 209 199 198 199
182 180 172 172 172 174 175 171 173 172 174 181 185 186 183 143 123 142 292 260 221 255 278 278 276 24 252 262 204 214 221 233 261 259 252 247 225 211 209 206 210 227 255
178 179 178 175 174 174 173 173 173 176 181 183 187 188 186 155 145 169 254 237 220 191 226 253 263 287 7 313 257 201 183 168 216 239 248 267 266 222 215 222 222 214 202
177 178 180 179 177 174 175 179 176 175 176 181 187 190 185 162 155 188 244 216 206 209 230 294 283 194 34 317 231 169 143 132 128 93 54 33 51 149 195 202 188 201 217
183 176 174 176 176 180 176 179 177 177 178 181 177 181 184 176 154 180 249 226 200 198 185 170 88 48 70 330 218 177 168 159 137 126 126 132 144 151 186 224 220 224 241
176 171 174 175 180 179 173 174 174 176 172 175 173 178 182 173 153 163 250 254 222 210 203 180 115 121 136 185 263 234 249 255 185 160 148 145 149 154 176 206 257 266 269
172 173 172 176 182 171 169 168 172 173 172 176 181 187 179 168 160 160 178 268 303 225 227 157 107 132 152 177 209 91 248 251 202 171 166 159 164 169 169 191 230 278 301
173 172 168 168 171 171 172 170 174 179 185 181 184 189 186 173 157 159 173 197 247 249 135 82 106 157 180 179 165 189 221 217 210 201 195 199 200 178 189 188 197 218 231
178 172 166 165 165 166 171 172 178 181 184 180 184 193 186 178 179 175 180 184 192 204 196 167 180 192 209 185 179 197 216 225 256 242 233 212 202 189 197 206 213 211 225
173 165 169 171 157 155 152 139 176 159 176 194 193 192 191 192 143 78 246 212 226 196 203 193 189 177 187 184 189 197 213 209 225 250 252 235 221 223 221 213 226 235 240
171 164 171 166 156 154 152 138 71 89 93 82 51 24 121 96 111 121 124 47 41 242 227 205 202 204 210 203 203 204 212 221 233 245 251 251 247 242 240 236 238 242 245
178 168 171 169 164 165 167 168 158 135 122 133 145 135 128 128 138 154 170 188 205 210 220 220 221 223 228 233 234 234 230 224 239 247 249 250 250 251 248 245 243 248 253
175 159 168 171 172 173 173 173 170 165 160 157 159 162 167 165 168 176 186 197 189 206 233 239 237 237 240 245 248 251 252 241 236 250 254 253 254 255 254 251 246 251 257
162 162 175 172 170 164 161 162 164 167 161 147 140 144 163 168 166 171 187 214 224 213 223 236 245 247 253 260 264 263 258 255 257 260 260 264 262 260 259 258 254 243 250
139 134 170 174 164 161 162 161 160 164 161 160 160 147 154 172 170 164 192 227 240 237 238 244 255 266 266 267 263 261 257 254 254 257 268 274 272 267 266 265 263 258 254
137 140 161 171 158 156 157 156 155 161 164 167 158 132 174 188 182 183 192 210 227 230 231 244 248 254 260 262 263 260 261 264 268 272 273 271 272 270 268 265 263 263 264
162 168 165 145 138 138 139 149 153 163 168 171 159 144 171 206 189 182 187 188 195 204 217 241 248 253 266 265 266 270 268 268 270 273 272 272 273 271 267 267 268 270 271
161 153 145 139 140 140 163 155 156 162 164 164 156 153 165 180 182 178 173 181 177 175 180 224 251 276 297 292 282 274 278 283 280 275 276 275 274 270 270 271 273 275 273
144 141 137 136 140 148 157 157 162 156 151 143 147 158 156 161 175 160 166 183 177 178 190 198 183 97 9 331 313 326 355 340 316 290 279 276 274 275 279 281 279 280 280
137 135 132 131 137 147 152 148 141 134 133 129 138 149 143 140 148 153 159 167 169 161 166 187 183 159 117 327 342 33 38 4 334 320 291 276 278 284 286 284 285 289 286
107 107 106 106 108 112 119 112 109 106 112 120 122 121 127 150 170 166 161 163 165 154 171 173 136 122 124 81 44 47 52 6 321 305 291 284 282 287 295 288 286 285 282